Wind_Speed
21 20 17 14 11 8 9 17 22 23 21 19 18 17 16 14 13 12 13 13 12 9 8 7 7 7 6 5 5 6 8 8 8 8 8 7 7 7 6 7 9 11 13 14 15 18 20 22 24
22 21 18 14 11 9 13 21 25 25 22 21 18 16 16 15 14 14 14 13 12 9 7 7 7 7 6 5 4 6 7 8 7 8 8 8 8 8 7 8 10 12 13 14 16 18 21 23 25
24 22 19 15 11 12 18 23 24 24 23 21 18 17 17 16 16 15 14 13 12 10 8 8 8 7 6 6 6 7 8 8 8 9 9 10 11 10 9 10 12 12 13 14 16 18 20 22 23
24 22 19 16 14 16 21 23 22 21 24 22 19 18 18 17 15 14 14 13 12 12 9 9 9 7 7 6 7 10 11 11 11 10 10 11 12 12 12 13 13 13 13 14 16 19 21 22 23
23 21 19 16 16 18 22 23 22 20 21 23 22 21 20 18 16 14 14 13 13 13 10 10 10 9 8 7 7 10 13 13 13 12 11 10 11 12 14 16 15 14 13 13 16 19 21 21 21
22 21 19 17 16 19 23 24 23 21 21 22 23 23 21 19 17 14 13 12 12 13 12 11 11 11 11 9 8 9 12 14 14 13 11 10 12 13 15 17 16 14 13 13 15 17 18 19 18
23 20 19 17 18 22 25 25 23 22 24 24 24 23 22 22 19 16 12 11 12 13 14 12 13 14 13 11 10 9 11 13 14 13 13 13 13 14 16 16 16 15 15 15 15 16 17 17 17
24 21 19 19 21 26 26 29 27 23 26 26 25 24 22 22 20 17 13 11 13 14 14 14 14 15 15 14 12 11 11 13 14 15 16 16 16 17 17 17 18 18 17 18 18 17 17 18 18
24 23 21 21 24 27 28 32 31 23 24 24 23 23 21 19 18 16 14 13 14 14 15 15 15 16 17 17 15 14 14 15 17 18 19 19 20 21 21 20 21 21 21 21 22 22 21 22 22
25 25 23 23 24 27 29 31 29 20 20 22 22 21 20 18 17 16 14 13 14 15 15 16 17 16 18 18 17 17 18 18 20 21 22 23 25 25 26 25 25 26 26 26 26 26 27 27 27
24 26 25 24 26 27 29 28 25 20 21 24 22 21 20 19 19 17 14 15 16 17 16 16 18 18 19 19 19 19 20 21 23 24 25 26 27 29 30 30 30 31 31 31 31 31 32 32 32
25 27 26 26 26 26 28 26 24 20 21 23 20 17 18 21 21 20 17 16 17 19 19 17 17 18 19 20 20 21 22 24 26 27 28 29 31 33 34 36 37 37 36 35 35 36 36 36 35
25 26 27 26 26 26 27 26 24 20 20 19 17 16 18 22 23 23 21 20 19 21 21 18 17 18 19 21 23 24 26 27 28 30 32 34 36 38 39 41 42 41 39 39 39 40 41 40 39
25 26 28 27 27 26 28 27 24 22 23 21 20 19 22 25 26 26 25 24 23 23 23 20 17 18 20 23 25 26 28 30 32 35 37 38 39 41 42 43 43 42 41 41 41 42 43 43 43
28 27 28 28 28 27 28 27 26 26 24 22 22 24 26 28 29 29 28 26 25 24 23 22 19 20 22 25 27 29 31 33 35 36 37 37 37 38 39 40 41 42 42 43 42 43 44 46 47
29 28 28 29 27 26 26 26 28 27 26 25 26 28 28 28 28 29 28 26 25 24 22 22 22 24 27 30 32 33 34 35 35 35 35 36 36 37 38 39 41 42 42 43 44 44 46 48 49
30 28 29 30 27 25 25 27 27 26 24 24 25 26 27 27 26 26 25 23 21 21 22 24 26 29 32 34 34 33 32 30 30 31 33 34 35 36 37 38 40 41 42 43 45 47 48 49 51
29 30 30 30 28 26 25 26 27 25 23 23 23 24 24 23 23 22 21 20 20 22 25 27 30 33 34 33 31 28 26 25 27 29 31 33 35 36 38 39 40 42 44 45 47 49 51 52 53
33 32 30 30 27 27 27 26 27 27 24 22 21 21 21 20 19 19 20 20 22 25 29 31 32 32 30 27 26 26 26 26 27 29 31 32 34 36 37 38 39 41 43 43 44 46 48 49 52
35 32 30 29 27 27 27 27 25 24 22 19 18 18 18 18 18 19 21 24 27 31 33 33 31 28 25 24 25 26 27 29 30 31 33 35 37 40 41 43 44 45 47 48 49 51 52 53 55
36 33 30 28 27 28 28 26 24 21 19 16 16 17 17 18 18 21 25 29 32 34 34 32 29 28 27 27 27 28 30 31 34 36 39 41 44 46 48 49 50 52 53 54 54 56 58 59 59
35 32 30 28 28 28 28 25 22 20 18 17 18 18 19 20 22 25 29 32 33 32 30 29 29 29 29 30 31 33 35 37 39 41 43 46 47 49 51 52 54 56 57 59 60 61 62 64 64
32 31 29 27 27 28 27 25 21 19 19 19 20 21 22 23 26 28 29 29 28 27 27 28 29 30 32 33 35 37 38 40 42 43 45 48 50 52 54 56 58 60 62 64 66 67 69 70 71
32 31 30 28 28 29 28 26 21 20 21 23 24 25 25 26 28 28 26 25 25 26 27 28 29 31 32 34 36 38 40 43 45 47 50 52 54 56 58 60 62 63 65 66 67 68 69 70 71
33 33 31 30 30 29 29 28 24 23 24 26 27 27 26 26 26 26 25 24 25 26 27 29 30 32 34 36 39 41 44 46 49 51 53 55 56 58 59 61 63 65 65 66 66 67 67 68 69
32 33 31 29 29 29 30 30 27 26 26 27 27 26 25 25 25 23 23 24 25 26 29 31 34 36 38 40 42 44 47 49 51 53 55 57 59 61 63 65 66 68 70 71 72 72 73 73 74
33 31 29 29 29 28 28 27 24 24 24 24 23 22 23 24 23 23 23 25 27 30 32 34 36 39 40 42 44 46 49 51 54 56 59 61 63 66 68 70 71 72 74 75 76 78 78 79 80
32 29 29 28 28 27 26 24 20 19 20 19 19 19 21 23 23 24 27 29 32 34 35 36 38 40 42 45 47 50 53 56 58 59 61 64 67 70 73 75 76 78 80 81 82 83 83 84 85
31 29 27 26 25 22 19 18 17 17 19 20 21 21 22 24 26 28 30 33 35 36 38 39 41 44 48 52 56 58 60 62 64 67 70 73 75 78 80 82 83 84 85 86 87 88 89 89 88
29 27 25 22 18 16 14 15 17 19 21 22 23 23 24 25 27 30 32 34 36 38 41 44 48 52 55 59 62 64 66 69 72 75 78 81 83 86 88 89 90 91 90 90 89 89 90 90 89
Wind_Direction
226 231 236 236 240 243 229 216 222 231 217 221 232 231 229 238 242 244 252 264 271 278 281 271 261 248 248 248 239 232 226 229 239 243 244 252 264 274 293 313 312 307 306 310 313 312 311 310 310
228 233 237 240 245 246 225 219 225 229 222 226 231 222 223 238 240 247 261 273 278 277 267 258 255 250 250 243 233 224 220 228 241 252 254 261 270 277 288 302 303 303 306 313 318 320 317 314 310
226 231 236 241 248 244 222 223 228 225 222 231 233 219 216 234 239 249 264 280 277 269 254 246 249 254 253 244 231 228 228 234 247 257 259 263 267 273 284 291 292 296 305 318 326 328 326 321 316
225 228 234 240 249 243 227 227 220 214 215 225 227 216 215 231 245 257 272 285 276 268 254 241 241 245 253 255 241 238 240 245 250 257 262 264 269 276 285 291 291 295 307 321 326 326 323 321 322
228 228 232 239 249 244 233 225 206 208 220 221 218 214 220 229 243 262 278 283 275 268 261 248 244 244 252 262 257 249 249 251 256 264 269 269 274 280 286 290 291 294 306 318 324 325 323 321 323
228 230 232 235 242 235 226 216 205 214 220 214 213 216 224 231 242 260 276 280 276 269 265 259 253 249 252 255 260 259 256 256 260 267 271 273 279 282 284 287 290 293 301 310 323 331 332 330 330
227 229 230 233 234 226 224 214 207 218 217 210 214 223 228 233 241 257 270 277 279 270 263 261 256 254 255 256 259 264 262 258 258 262 265 269 274 279 285 290 295 295 296 301 316 329 336 338 341
225 228 228 229 231 230 229 218 211 216 215 210 215 224 227 229 241 256 265 275 279 276 269 264 258 255 253 253 256 261 260 256 254 256 262 266 271 279 287 293 297 296 295 295 302 311 318 322 327
223 227 227 229 234 236 234 225 220 217 219 215 217 225 227 231 241 254 266 279 282 280 275 270 263 255 252 251 255 257 258 257 256 259 264 268 273 279 285 290 294 295 294 291 292 296 301 305 310
223 225 229 232 239 241 240 233 232 231 230 223 224 232 236 238 243 252 267 283 285 283 280 276 270 259 251 250 254 257 258 260 262 265 268 271 275 279 283 288 291 294 291 288 286 288 290 292 297
224 224 230 236 240 240 239 237 234 238 240 231 229 237 245 245 247 253 267 285 291 291 285 279 271 262 256 254 255 259 262 265 266 267 269 272 276 279 283 286 289 290 289 287 284 282 283 286 290
228 226 229 236 242 237 234 233 228 234 239 235 231 237 248 253 255 257 264 283 298 298 293 283 271 263 259 262 265 268 270 269 269 271 273 274 276 277 280 284 287 288 288 286 282 279 280 282 285
231 230 229 234 243 237 228 229 229 232 238 238 238 243 252 259 262 265 270 283 300 301 296 287 267 261 263 268 270 271 271 270 271 273 275 275 274 275 278 282 285 286 285 283 280 277 276 278 281
233 231 230 232 239 236 225 227 231 235 239 240 244 252 256 260 263 269 274 284 296 297 293 283 269 266 268 270 269 269 271 274 276 276 276 276 276 276 277 279 281 282 282 282 281 278 276 277 279
233 232 232 233 235 237 229 225 230 235 243 246 252 257 260 264 268 274 279 283 287 288 287 279 272 271 273 274 275 276 278 279 279 278 276 274 273 274 275 277 278 278 279 281 281 280 279 279 279
232 232 232 233 233 235 230 225 234 240 247 253 255 257 260 265 270 275 277 277 280 283 281 276 274 276 279 282 282 281 280 279 277 276 275 275 275 275 276 277 279 279 280 280 280 281 281 281 281
228 229 230 231 230 229 226 226 238 243 251 259 262 263 262 263 265 266 267 269 272 275 275 276 279 282 285 287 287 285 283 280 278 278 279 280 281 282 283 283 283 282 282 281 281 281 281 281 281
225 227 228 229 227 225 224 227 240 250 261 269 269 266 266 265 261 257 256 259 265 272 278 282 285 288 290 289 288 287 286 285 284 283 282 282 283 284 285 286 287 287 287 286 285 283 283 283 283
223 224 226 227 227 229 232 236 246 259 266 268 267 264 264 261 257 254 255 263 272 278 283 285 287 287 286 285 286 288 289 289 287 285 286 287 289 290 291 292 293 293 293 292 291 289 288 287 286
221 222 226 228 228 232 236 242 250 260 264 265 262 258 256 255 255 256 265 276 282 286 288 287 285 283 282 283 284 287 290 291 292 294 296 297 297 297 297 298 298 298 297 296 295 293 291 289 287
220 222 228 232 230 232 237 244 252 260 264 265 260 255 252 253 257 264 273 280 284 286 286 286 287 287 287 288 290 293 296 299 300 301 301 301 301 302 302 301 300 299 298 296 294 292 290 289 287
222 225 231 233 232 233 236 246 251 259 261 263 262 258 255 258 264 271 276 280 282 283 285 287 289 290 292 294 296 298 300 301 302 301 302 302 302 301 300 298 297 296 294 293 291 290 289 289 288
220 224 231 235 235 237 240 248 252 257 258 261 263 263 264 267 270 274 277 280 281 283 286 289 292 294 297 298 299 300 301 301 301 300 300 299 298 296 295 294 292 291 291 290 290 289 289 289 289
216 222 232 237 237 240 244 250 254 258 255 257 260 262 265 268 270 272 275 279 282 284 288 291 295 298 299 299 300 300 300 299 298 297 296 295 294 293 293 292 291 291 290 290 289 289 290 290 290
215 223 233 240 242 245 247 254 258 258 255 255 257 259 262 265 267 269 275 282 287 291 294 295 295 294 295 296 297 297 297 297 297 297 298 298 298 297 297 296 296 295 294 292 291 290 290 289 289
219 226 235 243 249 251 253 258 260 256 252 251 253 256 260 265 270 278 287 290 292 292 292 291 292 293 294 295 296 297 298 299 300 301 302 301 301 300 300 298 297 296 295 293 292 290 289 289 288
220 227 235 242 248 249 252 255 253 248 245 245 250 256 264 273 283 288 287 286 287 287 288 290 291 293 294 297 299 301 302 302 303 303 303 303 302 301 301 299 298 296 295 293 292 291 290 289 288
221 226 234 239 243 245 248 250 248 247 248 251 257 265 273 282 285 285 286 287 288 289 290 291 292 295 298 300 301 302 302 302 302 302 302 302 301 300 300 299 298 297 296 295 293 291 290 288 288
220 225 231 236 239 240 244 251 252 255 260 265 270 275 280 283 284 286 287 288 290 292 294 295 297 299 301 302 302 302 302 302 302 301 301 300 299 298 298 297 296 295 293 292 291 290 288 286 285
217 221 225 229 233 238 247 256 262 266 270 274 279 283 285 284 284 285 288 292 295 297 298 299 300 300 301 301 302 302 301 301 300 300 299 298 298 297 297 296 295 293 291 289 288 286 285 284 284
Height
5851 5853 5856 5858 5860 5862 5862 5861 5859 5859 5862 5863 5865 5869 5871 5873 5875 5879 5877 5875 5875 5875 5875 5874 5874 5874 5874 5874 5874 5874 5874 5874 5874 5875 5875 5875 5875 5874 5873 5872 5871 5870 5869 5867 5864 5862 5860 5857 5854
5849 5850 5854 5856 5858 5859 5858 5856 5855 5857 5860 5861 5862 5866 5868 5870 5872 5875 5875 5874 5874 5874 5873 5873 5873 5873 5872 5872 5872 5872 5872 5872 5873 5873 5873 5873 5873 5872 5871 5871 5870 5868 5866 5864 5862 5859 5857 5854 5851
5846 5848 5851 5854 5855 5855 5853 5852 5853 5855 5858 5859 5860 5864 5866 5868 5870 5872 5873 5873 5872 5872 5872 5871 5871 5871 5870 5870 5870 5870 5871 5871 5871 5871 5871 5871 5871 5870 5869 5868 5867 5865 5863 5861 5859 5856 5853 5850 5847
5843 5846 5849 5851 5852 5851 5849 5849 5851 5853 5854 5856 5859 5862 5864 5866 5868 5870 5871 5871 5870 5870 5870 5869 5869 5869 5869 5868 5868 5869 5869 5869 5869 5869 5868 5868 5868 5867 5866 5865 5863 5862 5860 5858 5855 5852 5849 5846 5843
5840 5843 5846 5848 5848 5847 5846 5846 5849 5851 5853 5855 5857 5859 5861 5864 5866 5868 5869 5869 5869 5868 5868 5867 5867 5866 5867 5867 5866 5867 5867 5867 5866 5866 5866 5865 5865 5864 5862 5861 5860 5859 5857 5854 5852 5849 5846 5843 5839
5838 5841 5844 5845 5844 5844 5844 5844 5846 5848 5850 5852 5854 5856 5859 5862 5864 5866 5867 5867 5866 5866 5865 5865 5865 5865 5865 5864 5864 5864 5864 5863 5863 5864 5863 5862 5861 5860 5859 5858 5857 5855 5853 5851 5849 5846 5843 5840 5837
5836 5839 5840 5842 5841 5840 5840 5841 5843 5845 5847 5849 5851 5854 5857 5859 5861 5863 5864 5864 5864 5863 5863 5863 5863 5864 5863 5862 5862 5861 5861 5861 5861 5861 5860 5859 5857 5856 5855 5854 5853 5851 5849 5847 5845 5843 5841 5838 5835
5832 5836 5837 5838 5838 5836 5837 5839 5840 5842 5844 5846 5849 5851 5854 5856 5859 5861 5861 5861 5861 5860 5860 5860 5861 5861 5861 5861 5860 5859 5859 5858 5858 5857 5856 5855 5854 5853 5852 5851 5849 5847 5845 5844 5842 5840 5838 5835 5832
5828 5833 5833 5834 5835 5835 5836 5837 5839 5840 5843 5846 5848 5850 5852 5854 5857 5858 5858 5858 5858 5857 5857 5857 5858 5858 5858 5858 5857 5857 5856 5855 5855 5854 5853 5852 5851 5850 5848 5847 5845 5843 5842 5840 5838 5836 5834 5831 5828
5824 5828 5830 5831 5832 5832 5834 5836 5840 5843 5844 5845 5847 5849 5850 5852 5854 5855 5855 5855 5855 5854 5854 5854 5853 5853 5854 5854 5854 5854 5853 5852 5851 5850 5850 5848 5847 5846 5844 5843 5841 5839 5837 5835 5833 5831 5828 5826 5823
5819 5824 5826 5827 5828 5830 5832 5835 5839 5842 5842 5842 5844 5846 5848 5849 5852 5853 5853 5852 5851 5851 5852 5851 5850 5850 5850 5851 5851 5850 5849 5848 5847 5846 5845 5844 5842 5840 5839 5837 5836 5834 5832 5829 5827 5825 5822 5819 5817
5815 5819 5822 5824 5825 5827 5830 5832 5836 5839 5839 5839 5841 5843 5844 5846 5848 5849 5850 5850 5849 5848 5849 5849 5848 5847 5847 5847 5846 5846 5845 5844 5843 5841 5840 5839 5837 5835 5832 5830 5828 5826 5825 5822 5820 5817 5814 5812 5809
5810 5815 5818 5820 5822 5825 5828 5830 5833 5836 5836 5836 5838 5840 5841 5842 5844 5845 5847 5847 5847 5846 5845 5845 5845 5844 5844 5844 5843 5842 5841 5839 5838 5836 5834 5832 5830 5828 5826 5823 5821 5819 5817 5814 5812 5809 5806 5804 5801
5806 5811 5814 5817 5818 5821 5825 5827 5830 5832 5832 5834 5836 5837 5838 5840 5841 5842 5844 5844 5843 5842 5841 5840 5840 5840 5840 5840 5839 5837 5835 5833 5831 5828 5826 5824 5822 5820 5818 5815 5813 5810 5808 5806 5803 5800 5798 5795 5792
5801 5806 5810 5813 5815 5818 5822 5825 5825 5827 5829 5832 5833 5834 5836 5837 5838 5839 5839 5839 5838 5838 5837 5836 5835 5835 5835 5835 5833 5831 5829 5826 5823 5820 5817 5815 5813 5811 5809 5807 5805 5803 5800 5797 5794 5791 5788 5785 5782
5797 5802 5806 5809 5812 5815 5820 5822 5822 5824 5827 5829 5829 5831 5833 5834 5834 5834 5834 5834 5833 5833 5833 5832 5831 5831 5830 5829 5827 5824 5821 5819 5816 5813 5810 5808 5806 5804 5802 5800 5797 5794 5792 5789 5786 5783 5779 5776 5773
5792 5797 5801 5805 5809 5812 5816 5819 5820 5822 5824 5825 5826 5827 5829 5829 5830 5829 5829 5829 5830 5829 5829 5828 5827 5825 5823 5821 5819 5815 5813 5810 5807 5805 5803 5801 5799 5797 5795 5792 5789 5786 5783 5781 5777 5774 5770 5767 5763
5789 5793 5797 5801 5805 5809 5812 5815 5816 5818 5821 5822 5822 5823 5823 5823 5824 5824 5824 5825 5825 5825 5824 5823 5821 5819 5816 5813 5810 5808 5805 5803 5800 5798 5796 5793 5791 5789 5787 5784 5781 5778 5775 5772 5768 5765 5760 5757 5752
5784 5788 5793 5798 5802 5807 5810 5812 5814 5815 5817 5818 5818 5818 5818 5818 5819 5819 5820 5820 5820 5820 5818 5817 5815 5812 5809 5806 5803 5800 5798 5796 5794 5791 5789 5786 5784 5781 5779 5776 5773 5769 5766 5763 5759 5755 5751 5747 5742
5779 5785 5790 5795 5799 5803 5806 5809 5810 5811 5812 5813 5814 5814 5814 5814 5815 5815 5815 5815 5813 5812 5810 5809 5807 5805 5803 5800 5797 5795 5792 5789 5787 5785 5782 5779 5776 5773 5770 5767 5764 5760 5757 5753 5749 5744 5740 5737 5731
5775 5782 5788 5791 5794 5798 5801 5805 5807 5808 5808 5808 5809 5809 5810 5810 5810 5811 5810 5808 5807 5805 5802 5800 5798 5796 5795 5793 5791 5789 5786 5783 5780 5777 5774 5770 5767 5764 5760 5757 5753 5749 5745 5741 5736 5731 5726 5722 5718
5773 5781 5784 5786 5789 5793 5797 5800 5803 5804 5803 5804 5805 5805 5805 5805 5805 5805 5804 5802 5800 5798 5796 5794 5791 5789 5787 5785 5783 5781 5778 5775 5772 5768 5765 5761 5757 5753 5749 5745 5741 5736 5731 5727 5722 5716 5711 5706 5703
5772 5777 5780 5782 5785 5789 5792 5795 5800 5800 5799 5799 5800 5801 5801 5800 5800 5799 5797 5796 5794 5792 5790 5788 5785 5783 5780 5778 5775 5773 5769 5766 5763 5759 5755 5751 5747 5742 5737 5733 5728 5722 5717 5712 5706 5701 5696 5690 5686
5768 5773 5775 5777 5780 5785 5787 5790 5796 5796 5795 5795 5795 5796 5796 5795 5793 5792 5791 5790 5788 5786 5784 5782 5779 5776 5773 5770 5767 5764 5760 5756 5752 5748 5744 5739 5734 5729 5724 5719 5714 5708 5703 5697 5691 5685 5679 5674 5668
5764 5769 5771 5773 5776 5781 5782 5785 5791 5792 5790 5789 5790 5790 5789 5788 5786 5785 5784 5783 5782 5780 5778 5775 5771 5768 5765 5761 5758 5754 5749 5745 5740 5736 5731 5726 5721 5715 5710 5704 5699 5693 5687 5681 5675 5669 5663 5657 5651
5761 5765 5768 5771 5774 5777 5778 5779 5785 5785 5784 5783 5784 5783 5782 5780 5780 5779 5778 5776 5775 5773 5770 5766 5762 5758 5755 5751 5747 5743 5738 5733 5728 5723 5718 5712 5707 5701 5696 5690 5684 5677 5670 5664 5658 5652 5646 5640 5634
5756 5760 5763 5766 5769 5771 5772 5774 5778 5778 5777 5778 5779 5778 5775 5774 5774 5772 5770 5769 5767 5764 5761 5757 5753 5749 5745 5741 5736 5732 5727 5722 5717 5711 5704 5698 5692 5686 5679 5673 5666 5659 5652 5644 5637 5631 5625 5619 5613
5753 5756 5759 5762 5764 5766 5767 5769 5772 5772 5772 5773 5773 5772 5770 5768 5766 5764 5763 5761 5758 5755 5752 5748 5744 5740 5736 5732 5727 5722 5716 5710 5704 5698 5691 5684 5677 5670 5662 5655 5647 5639 5632 5624 5616 5610 5603 5595 5589
5750 5753 5755 5758 5760 5762 5763 5767 5766 5766 5766 5766 5766 5765 5764 5762 5759 5757 5755 5752 5750 5746 5743 5739 5735 5732 5727 5721 5716 5710 5703 5696 5690 5683 5676 5668 5660 5652 5644 5635 5627 5619 5610 5602 5594 5586 5579 5572 5567
5745 5748 5752 5755 5758 5759 5760 5764 5760 5760 5759 5759 5758 5758 5757 5754 5752 5750 5748 5745 5741 5737 5734 5730 5726 5721 5715 5709 5702 5696 5689 5681 5674 5666 5658 5650 5641 5632 5623 5614 5606 5597 5587 5578 5569 5561 5554 5548 5543